Year,Month,Day,Hour,Minute,Value (Times are PST for windspeed in km/hr)
2019,04,25,00,00,0.00
2019,04,25,00,01,0.00
2019,04,25,00,02,0.00
2019,04,25,00,03,0.00
2019,04,25,00,04,0.00
2019,04,25,00,05,0.00
2019,04,25,00,06,0.00
2019,04,25,00,07,0.00
2019,04,25,00,08,0.00
2019,04,25,00,09,0.00
2019,04,25,00,10,0.00
2019,04,25,00,11,0.00
2019,04,25,00,12,0.00
2019,04,25,00,13,0.00
2019,04,25,00,14,0.00
2019,04,25,00,15,0.00
2019,04,25,00,16,0.00
2019,04,25,00,17,0.00
2019,04,25,00,18,0.00
2019,04,25,00,19,0.00
2019,04,25,00,20,0.00
2019,04,25,00,21,0.00
2019,04,25,00,22,0.00
2019,04,25,00,23,0.00
2019,04,25,00,24,0.00
2019,04,25,00,25,0.00
2019,04,25,00,26,0.00
2019,04,25,00,27,0.00
2019,04,25,00,28,0.00
2019,04,25,00,29,0.00
2019,04,25,00,30,0.00
2019,04,25,00,31,0.00
2019,04,25,00,32,0.00
2019,04,25,00,33,0.00
2019,04,25,00,34,0.00
2019,04,25,00,35,0.00
2019,04,25,00,36,0.00
2019,04,25,00,37,0.00
2019,04,25,00,38,0.00
2019,04,25,00,39,0.00
2019,04,25,00,40,0.00
2019,04,25,00,41,0.00
2019,04,25,00,42,0.00
2019,04,25,00,43,0.00
2019,04,25,00,44,0.00
2019,04,25,00,45,0.00
2019,04,25,00,46,0.00
2019,04,25,00,47,0.00
2019,04,25,00,48,0.00
2019,04,25,00,49,0.00
2019,04,25,00,50,0.00
2019,04,25,00,51,0.00
2019,04,25,00,52,0.00
2019,04,25,00,53,0.00
2019,04,25,00,54,0.00
2019,04,25,00,55,0.00
2019,04,25,00,56,0.00
2019,04,25,00,57,0.00
2019,04,25,00,58,0.00
2019,04,25,00,59,0.00
2019,04,25,01,00,0.00
2019,04,25,01,01,0.00
2019,04,25,01,02,0.00
2019,04,25,01,03,0.00
2019,04,25,01,04,0.00
2019,04,25,01,05,0.00
2019,04,25,01,06,0.00
2019,04,25,01,07,0.00
2019,04,25,01,08,0.00
2019,04,25,01,09,0.00
2019,04,25,01,10,0.00
2019,04,25,01,11,0.00
2019,04,25,01,12,0.00
2019,04,25,01,13,0.00
2019,04,25,01,14,0.00
2019,04,25,01,15,0.00
2019,04,25,01,16,0.00
2019,04,25,01,17,0.00
2019,04,25,01,18,0.00
2019,04,25,01,19,0.00
2019,04,25,01,20,0.00
2019,04,25,01,21,0.00
2019,04,25,01,22,0.00
2019,04,25,01,23,0.00
2019,04,25,01,24,0.00
2019,04,25,01,25,0.00
2019,04,25,01,26,0.00
2019,04,25,01,27,0.00
2019,04,25,01,28,0.00
2019,04,25,01,29,0.00
2019,04,25,01,30,0.00
2019,04,25,01,31,0.00
2019,04,25,01,32,0.00
2019,04,25,01,33,0.00
2019,04,25,01,34,0.00
2019,04,25,01,35,0.00
2019,04,25,01,36,0.00
2019,04,25,01,37,0.00
2019,04,25,01,38,0.00
2019,04,25,01,39,0.00
2019,04,25,01,40,0.00
2019,04,25,01,41,0.00
2019,04,25,01,42,0.00
2019,04,25,01,43,0.00
2019,04,25,01,44,0.00
2019,04,25,01,45,0.00
2019,04,25,01,46,0.00
2019,04,25,01,47,0.00
2019,04,25,01,48,0.00
2019,04,25,01,49,0.00
2019,04,25,01,50,0.00
2019,04,25,01,51,0.00
2019,04,25,01,52,0.00
2019,04,25,01,53,0.00
2019,04,25,01,54,0.00
2019,04,25,01,55,0.00
2019,04,25,01,56,0.00
2019,04,25,01,57,0.00
2019,04,25,01,58,0.00
2019,04,25,01,59,0.00
2019,04,25,02,00,0.00
2019,04,25,02,01,0.00
2019,04,25,02,02,0.00
2019,04,25,02,03,0.00
2019,04,25,02,04,0.00
2019,04,25,02,05,0.00
2019,04,25,02,06,0.00
2019,04,25,02,07,0.00
2019,04,25,02,08,0.00
2019,04,25,02,09,0.00
2019,04,25,02,10,0.00
2019,04,25,02,11,0.00
2019,04,25,02,12,0.00
2019,04,25,02,13,0.00
2019,04,25,02,14,0.00
2019,04,25,02,15,0.00
2019,04,25,02,16,0.00
2019,04,25,02,17,0.00
2019,04,25,02,18,0.00
2019,04,25,02,19,0.00
2019,04,25,02,20,0.00
2019,04,25,02,21,0.00
2019,04,25,02,22,0.00
2019,04,25,02,23,0.00
2019,04,25,02,24,0.00
2019,04,25,02,25,0.00
2019,04,25,02,26,0.00
2019,04,25,02,27,0.00
2019,04,25,02,28,0.00
2019,04,25,02,29,0.00
2019,04,25,02,30,0.00
2019,04,25,02,31,0.00
2019,04,25,02,32,0.00
2019,04,25,02,33,0.00
2019,04,25,02,34,0.00
2019,04,25,02,35,0.00
2019,04,25,02,36,0.00
2019,04,25,02,37,0.00
2019,04,25,02,38,0.00
2019,04,25,02,39,0.00
2019,04,25,02,40,0.00
2019,04,25,02,41,0.00
2019,04,25,02,42,0.00
2019,04,25,02,43,0.00
2019,04,25,02,44,0.00
2019,04,25,02,45,0.00
2019,04,25,02,46,0.00
2019,04,25,02,47,0.00
2019,04,25,02,48,0.00
2019,04,25,02,49,0.00
2019,04,25,02,50,0.00
2019,04,25,02,51,0.00
2019,04,25,02,52,0.00
2019,04,25,02,53,0.00
2019,04,25,02,54,0.00
2019,04,25,02,55,0.00
2019,04,25,02,56,0.00
2019,04,25,02,57,0.00
2019,04,25,02,58,0.00
2019,04,25,02,59,0.00
2019,04,25,03,00,0.00
2019,04,25,03,01,0.00
2019,04,25,03,02,0.00
2019,04,25,03,03,0.00
2019,04,25,03,04,0.00
2019,04,25,03,05,0.00
2019,04,25,03,06,0.00
2019,04,25,03,07,0.00
2019,04,25,03,08,0.00
2019,04,25,03,09,0.00
2019,04,25,03,10,0.00
2019,04,25,03,11,0.00
2019,04,25,03,12,0.00
2019,04,25,03,13,0.00
2019,04,25,03,14,0.00
2019,04,25,03,15,0.00
2019,04,25,03,16,0.00
2019,04,25,03,17,0.00
2019,04,25,03,18,0.00
2019,04,25,03,19,0.00
2019,04,25,03,20,0.00
2019,04,25,03,21,0.00
2019,04,25,03,22,0.00
2019,04,25,03,23,0.00
2019,04,25,03,24,0.00
2019,04,25,03,25,0.00
2019,04,25,03,26,0.00
2019,04,25,03,27,0.00
2019,04,25,03,28,0.00
2019,04,25,03,29,0.00
2019,04,25,03,30,0.00
2019,04,25,03,31,0.00
2019,04,25,03,32,0.00
2019,04,25,03,33,0.00
2019,04,25,03,34,0.00
2019,04,25,03,35,0.00
2019,04,25,03,36,0.00
2019,04,25,03,37,0.00
2019,04,25,03,38,0.00
2019,04,25,03,39,0.00
2019,04,25,03,40,0.00
2019,04,25,03,41,0.00
2019,04,25,03,42,0.00
2019,04,25,03,43,0.00
2019,04,25,03,44,0.00
2019,04,25,03,45,0.00
2019,04,25,03,46,0.00
2019,04,25,03,47,0.00
2019,04,25,03,48,0.00
2019,04,25,03,49,0.00
2019,04,25,03,50,0.00
2019,04,25,03,51,0.00
2019,04,25,03,52,0.00
2019,04,25,03,53,0.00
2019,04,25,03,54,0.00
2019,04,25,03,55,0.00
2019,04,25,03,56,0.00
2019,04,25,03,57,0.00
2019,04,25,03,58,0.00
2019,04,25,03,59,0.00
2019,04,25,04,00,0.00
2019,04,25,04,01,0.00
2019,04,25,04,02,0.00
2019,04,25,04,03,0.00
2019,04,25,04,04,0.00
2019,04,25,04,05,0.00
2019,04,25,04,06,0.00
2019,04,25,04,07,0.00
2019,04,25,04,08,0.00
2019,04,25,04,09,0.00
2019,04,25,04,10,0.00
2019,04,25,04,11,0.00
2019,04,25,04,12,0.00
2019,04,25,04,13,0.00
2019,04,25,04,14,0.00
2019,04,25,04,15,0.00
2019,04,25,04,16,0.00
2019,04,25,04,17,0.00
2019,04,25,04,18,0.00
2019,04,25,04,19,0.00
2019,04,25,04,20,0.00
2019,04,25,04,21,0.00
2019,04,25,04,22,0.00
2019,04,25,04,23,0.00
2019,04,25,04,24,0.00
2019,04,25,04,25,0.00
2019,04,25,04,26,0.00
2019,04,25,04,27,0.00
2019,04,25,04,28,0.00
2019,04,25,04,29,0.00
2019,04,25,04,30,0.00
2019,04,25,04,31,0.00
2019,04,25,04,32,0.00
2019,04,25,04,33,0.00
2019,04,25,04,34,0.00
2019,04,25,04,35,0.00
2019,04,25,04,36,0.00
2019,04,25,04,37,0.00
2019,04,25,04,38,0.00
2019,04,25,04,39,0.00
2019,04,25,04,40,0.00
2019,04,25,04,41,0.00
2019,04,25,04,42,0.00
2019,04,25,04,43,0.00
2019,04,25,04,44,0.00
2019,04,25,04,45,0.00
2019,04,25,04,46,0.00
2019,04,25,04,47,0.00
2019,04,25,04,48,0.00
2019,04,25,04,49,0.00
2019,04,25,04,50,0.00
2019,04,25,04,51,0.00
2019,04,25,04,52,0.00
2019,04,25,04,53,0.00
2019,04,25,04,54,0.00
2019,04,25,04,55,0.00
2019,04,25,04,56,0.00
2019,04,25,04,57,0.00
2019,04,25,04,58,0.00
2019,04,25,04,59,0.00
2019,04,25,05,00,0.00
2019,04,25,05,01,0.00
2019,04,25,05,02,0.00
2019,04,25,05,03,0.00
2019,04,25,05,04,0.00
2019,04,25,05,05,0.00
2019,04,25,05,06,0.00
2019,04,25,05,07,0.00
2019,04,25,05,08,0.00
2019,04,25,05,09,0.00
2019,04,25,05,10,0.00
2019,04,25,05,11,0.00
2019,04,25,05,12,0.00
2019,04,25,05,13,0.00
2019,04,25,05,14,0.00
2019,04,25,05,15,0.00
2019,04,25,05,16,0.00
2019,04,25,05,17,0.00
2019,04,25,05,18,0.00
2019,04,25,05,19,0.00
2019,04,25,05,20,0.00
2019,04,25,05,21,0.00
2019,04,25,05,22,0.00
2019,04,25,05,23,0.00
2019,04,25,05,24,0.00
2019,04,25,05,25,0.00
2019,04,25,05,26,0.00
2019,04,25,05,27,0.00
2019,04,25,05,28,0.00
2019,04,25,05,29,0.00
2019,04,25,05,30,0.00
2019,04,25,05,31,0.00
2019,04,25,05,32,0.00
2019,04,25,05,33,0.00
2019,04,25,05,34,0.00
2019,04,25,05,35,0.00
2019,04,25,05,36,0.00
2019,04,25,05,37,0.00
2019,04,25,05,38,0.00
2019,04,25,05,39,0.00
2019,04,25,05,40,0.00
2019,04,25,05,41,0.00
2019,04,25,05,42,0.00
2019,04,25,05,43,0.00
2019,04,25,05,44,0.00
2019,04,25,05,45,0.00
2019,04,25,05,46,0.00
2019,04,25,05,47,0.00
2019,04,25,05,48,0.00
2019,04,25,05,49,0.00
2019,04,25,05,50,0.00
2019,04,25,05,51,0.00
2019,04,25,05,52,0.00
2019,04,25,05,53,0.00
2019,04,25,05,54,0.00
2019,04,25,05,55,0.00
2019,04,25,05,56,0.00
2019,04,25,05,57,0.00
2019,04,25,05,58,0.00
2019,04,25,05,59,0.00
2019,04,25,06,00,0.00
2019,04,25,06,01,0.00
2019,04,25,06,02,0.00
2019,04,25,06,03,0.00
2019,04,25,06,04,0.00
2019,04,25,06,05,0.00
2019,04,25,06,06,0.00
2019,04,25,06,07,0.00
2019,04,25,06,08,0.00
2019,04,25,06,09,0.00
2019,04,25,06,10,0.00
2019,04,25,06,11,0.00
2019,04,25,06,12,0.00
2019,04,25,06,13,0.00
2019,04,25,06,14,0.00
2019,04,25,06,15,0.00
2019,04,25,06,16,0.00
2019,04,25,06,17,0.00
2019,04,25,06,18,0.00
2019,04,25,06,19,0.00
2019,04,25,06,20,0.00
2019,04,25,06,21,0.00
2019,04,25,06,22,0.00
2019,04,25,06,23,0.00
2019,04,25,06,24,0.00
2019,04,25,06,25,0.00
2019,04,25,06,26,0.00
2019,04,25,06,27,0.00
2019,04,25,06,28,0.00
2019,04,25,06,29,0.00
2019,04,25,06,30,0.00
2019,04,25,06,31,0.00
2019,04,25,06,32,0.00
2019,04,25,06,33,0.00
2019,04,25,06,34,0.00
2019,04,25,06,35,0.00
2019,04,25,06,36,0.00
2019,04,25,06,37,0.00
2019,04,25,06,38,0.00
2019,04,25,06,39,0.00
2019,04,25,06,40,0.00
2019,04,25,06,41,0.00
2019,04,25,06,42,0.00
2019,04,25,06,43,0.00
2019,04,25,06,44,0.00
2019,04,25,06,45,0.00
2019,04,25,06,46,0.00
2019,04,25,06,47,0.00
2019,04,25,06,48,0.00
2019,04,25,06,49,0.00
2019,04,25,06,50,0.00
2019,04,25,06,51,0.00
2019,04,25,06,52,0.00
2019,04,25,06,53,0.00
2019,04,25,06,54,0.00
2019,04,25,06,55,0.00
2019,04,25,06,56,0.00
2019,04,25,06,57,0.00
2019,04,25,06,58,0.00
2019,04,25,06,59,0.00
2019,04,25,07,00,0.00
2019,04,25,07,01,0.00
2019,04,25,07,02,0.00
2019,04,25,07,03,0.00
2019,04,25,07,04,0.00
2019,04,25,07,05,0.00
2019,04,25,07,06,0.00
2019,04,25,07,07,0.00
2019,04,25,07,08,0.00
2019,04,25,07,09,0.00
2019,04,25,07,10,0.00
2019,04,25,07,11,0.00
2019,04,25,07,12,0.00
2019,04,25,07,13,0.00
2019,04,25,07,14,0.00
2019,04,25,07,15,0.00
2019,04,25,07,16,0.00
2019,04,25,07,17,0.00
2019,04,25,07,18,0.00
2019,04,25,07,19,0.00
2019,04,25,07,20,0.00
2019,04,25,07,21,0.00
2019,04,25,07,22,0.00
2019,04,25,07,23,0.00
2019,04,25,07,24,0.00
2019,04,25,07,25,0.00
2019,04,25,07,26,0.00
2019,04,25,07,27,0.00
2019,04,25,07,28,0.00
2019,04,25,07,29,0.00
2019,04,25,07,30,0.00
2019,04,25,07,31,0.00
2019,04,25,07,32,0.00
2019,04,25,07,33,0.00
2019,04,25,07,34,0.00
2019,04,25,07,35,0.00
2019,04,25,07,36,0.00
2019,04,25,07,37,0.00
2019,04,25,07,38,0.00
2019,04,25,07,39,0.00
2019,04,25,07,40,0.00
2019,04,25,07,41,0.00
2019,04,25,07,42,0.00
2019,04,25,07,43,0.00
2019,04,25,07,44,0.00
2019,04,25,07,45,0.00
2019,04,25,07,46,0.00
2019,04,25,07,47,0.00
2019,04,25,07,48,0.00
2019,04,25,07,49,0.00
2019,04,25,07,50,0.00
2019,04,25,07,51,0.00
2019,04,25,07,52,0.00
2019,04,25,07,53,0.00
2019,04,25,07,54,0.00
2019,04,25,07,55,0.00
2019,04,25,07,56,0.00
2019,04,25,07,57,0.00
2019,04,25,07,58,0.00
2019,04,25,07,59,0.00
2019,04,25,08,00,0.00
2019,04,25,08,01,0.00
2019,04,25,08,02,0.00
2019,04,25,08,03,0.00
2019,04,25,08,04,0.00
2019,04,25,08,05,0.00
2019,04,25,08,06,0.00
2019,04,25,08,07,0.00
2019,04,25,08,08,0.00
2019,04,25,08,09,0.00
2019,04,25,08,10,0.00
2019,04,25,08,11,0.00
2019,04,25,08,12,0.00
2019,04,25,08,13,0.00
2019,04,25,08,14,0.00
2019,04,25,08,15,0.00
2019,04,25,08,16,0.00
2019,04,25,08,17,0.00
2019,04,25,08,18,0.00
2019,04,25,08,19,0.00
2019,04,25,08,20,0.00
2019,04,25,08,21,0.00
2019,04,25,08,22,0.00
2019,04,25,08,23,0.00
2019,04,25,08,24,2.00
2019,04,25,08,25,0.50
2019,04,25,08,26,0.00
2019,04,25,08,27,0.00
2019,04,25,08,28,0.00
2019,04,25,08,29,0.00
2019,04,25,08,30,0.00
2019,04,25,08,31,0.00
2019,04,25,08,32,0.00
2019,04,25,08,33,1.30
2019,04,25,08,34,2.20
2019,04,25,08,35,2.90
2019,04,25,08,36,0.10
2019,04,25,08,37,0.00
2019,04,25,08,38,0.00
2019,04,25,08,39,0.00
2019,04,25,08,40,0.10
2019,04,25,08,41,2.40
2019,04,25,08,42,2.50
2019,04,25,08,43,2.50
2019,04,25,08,44,0.00
2019,04,25,08,45,0.00
2019,04,25,08,46,0.00
2019,04,25,08,47,0.00
2019,04,25,08,48,0.00
2019,04,25,08,49,0.00
2019,04,25,08,50,0.00
2019,04,25,08,51,0.00
2019,04,25,08,52,0.00
2019,04,25,08,53,0.00
2019,04,25,08,54,0.00
2019,04,25,08,55,0.00
2019,04,25,08,56,0.00
2019,04,25,08,57,0.00
2019,04,25,08,58,0.00
2019,04,25,08,59,0.00
2019,04,25,09,00,0.00
2019,04,25,09,01,0.00
2019,04,25,09,02,0.00
2019,04,25,09,03,0.00
2019,04,25,09,04,0.00
2019,04,25,09,05,0.00
2019,04,25,09,06,0.00
2019,04,25,09,07,0.00
2019,04,25,09,08,0.30
2019,04,25,09,09,2.40
2019,04,25,09,10,3.20
2019,04,25,09,11,2.90
2019,04,25,09,12,4.10
2019,04,25,09,13,3.10
2019,04,25,09,14,3.00
2019,04,25,09,15,3.10
2019,04,25,09,16,4.20
2019,04,25,09,17,0.50
2019,04,25,09,18,0.00
2019,04,25,09,19,0.00
2019,04,25,09,20,0.00
2019,04,25,09,21,0.00
2019,04,25,09,22,0.00
2019,04,25,09,23,0.00
2019,04,25,09,24,0.00
2019,04,25,09,25,0.00
2019,04,25,09,26,0.00
2019,04,25,09,27,0.00
2019,04,25,09,28,0.00
2019,04,25,09,29,0.00
2019,04,25,09,30,0.00
2019,04,25,09,31,0.00
2019,04,25,09,32,0.00
2019,04,25,09,33,0.00
2019,04,25,09,34,0.00
2019,04,25,09,35,0.00
2019,04,25,09,36,0.00
2019,04,25,09,37,0.00
2019,04,25,09,38,0.00
2019,04,25,09,39,0.00
2019,04,25,09,40,0.00
2019,04,25,09,41,0.00
2019,04,25,09,42,0.00
2019,04,25,09,43,0.00
2019,04,25,09,44,0.00
2019,04,25,09,45,0.00
2019,04,25,09,46,1.30
2019,04,25,09,47,2.30
2019,04,25,09,48,2.40
2019,04,25,09,49,2.00
2019,04,25,09,50,0.40
2019,04,25,09,51,1.70
2019,04,25,09,52,2.20
2019,04,25,09,53,3.50
2019,04,25,09,54,3.10
2019,04,25,09,55,2.70
2019,04,25,09,56,2.30
2019,04,25,09,57,2.00
2019,04,25,09,58,2.70
2019,04,25,09,59,1.70
2019,04,25,10,00,3.10
2019,04,25,10,01,1.90
2019,04,25,10,02,0.40
2019,04,25,10,03,0.00
2019,04,25,10,04,0.00
2019,04,25,10,05,1.10
2019,04,25,10,06,2.90
2019,04,25,10,07,1.80
2019,04,25,10,08,0.80
2019,04,25,10,09,7.60
2019,04,25,10,10,5.40
2019,04,25,10,11,4.20
2019,04,25,10,12,4.90
2019,04,25,10,13,6.30
2019,04,25,10,14,5.40
2019,04,25,10,15,3.60
2019,04,25,10,16,3.80
2019,04,25,10,17,5.60
2019,04,25,10,18,7.60
2019,04,25,10,19,4.10
2019,04,25,10,20,6.10
2019,04,25,10,21,5.70
2019,04,25,10,22,6.20
2019,04,25,10,23,4.50
2019,04,25,10,24,3.30
2019,04,25,10,25,3.70
2019,04,25,10,26,4.80
2019,04,25,10,27,7.50
2019,04,25,10,28,2.80
2019,04,25,10,29,4.50
2019,04,25,10,30,5.10
2019,04,25,10,31,4.80
2019,04,25,10,32,2.40
2019,04,25,10,33,5.40
2019,04,25,10,34,3.00
2019,04,25,10,35,1.20
2019,04,25,10,36,6.70
2019,04,25,10,37,6.10
2019,04,25,10,38,0.70
2019,04,25,10,39,3.10
2019,04,25,10,40,6.00
2019,04,25,10,41,5.70
2019,04,25,10,42,4.50
2019,04,25,10,43,3.60
2019,04,25,10,44,4.70
2019,04,25,10,45,6.60
2019,04,25,10,46,6.10
2019,04,25,10,47,5.60
2019,04,25,10,48,3.30
2019,04,25,10,49,6.70
2019,04,25,10,50,8.60
2019,04,25,10,51,6.00
2019,04,25,10,52,4.00
2019,04,25,10,53,3.90
2019,04,25,10,54,1.00
2019,04,25,10,55,7.30
2019,04,25,10,56,3.70
2019,04,25,10,57,6.10
2019,04,25,10,58,3.10
2019,04,25,10,59,3.00
2019,04,25,11,00,8.40
2019,04,25,11,01,7.40
2019,04,25,11,02,5.30
2019,04,25,11,03,5.20
2019,04,25,11,04,4.40
2019,04,25,11,05,6.90
2019,04,25,11,06,7.20
2019,04,25,11,07,6.10
2019,04,25,11,08,4.20
2019,04,25,11,09,6.70
2019,04,25,11,10,4.30
2019,04,25,11,11,2.50
2019,04,25,11,12,7.20
2019,04,25,11,13,5.00
2019,04,25,11,14,3.60
2019,04,25,11,15,4.10
2019,04,25,11,16,9.70
2019,04,25,11,17,2.60
2019,04,25,11,18,3.00
2019,04,25,11,19,2.90
2019,04,25,11,20,4.50
2019,04,25,11,21,6.90
2019,04,25,11,22,10.50
2019,04,25,11,23,7.50
2019,04,25,11,24,9.30
2019,04,25,11,25,8.20
2019,04,25,11,26,11.60
2019,04,25,11,27,8.90
2019,04,25,11,28,7.90
2019,04,25,11,29,5.40
2019,04,25,11,30,5.40
2019,04,25,11,31,8.40
2019,04,25,11,32,6.40
2019,04,25,11,33,5.50
2019,04,25,11,34,11.30
2019,04,25,11,35,7.20
2019,04,25,11,36,5.50
2019,04,25,11,37,4.70
2019,04,25,11,38,3.10
2019,04,25,11,39,5.10
2019,04,25,11,40,7.80
2019,04,25,11,41,1.60
2019,04,25,11,42,8.40
2019,04,25,11,43,11.50
2019,04,25,11,44,3.50
2019,04,25,11,45,5.00
2019,04,25,11,46,10.30
2019,04,25,11,47,9.30
2019,04,25,11,48,6.30
2019,04,25,11,49,6.40
2019,04,25,11,50,6.10
2019,04,25,11,51,7.60
2019,04,25,11,52,8.80
2019,04,25,11,53,11.10
2019,04,25,11,54,5.70
2019,04,25,11,55,6.30
2019,04,25,11,56,5.70
2019,04,25,11,57,3.20
2019,04,25,11,58,7.80
2019,04,25,11,59,5.40
2019,04,25,12,00,4.10
2019,04,25,12,01,2.60
2019,04,25,12,02,7.50
2019,04,25,12,03,4.60
2019,04,25,12,04,3.60
2019,04,25,12,05,7.60
2019,04,25,12,06,12.80
2019,04,25,12,07,10.40
2019,04,25,12,08,8.70
2019,04,25,12,09,0.90
2019,04,25,12,10,1.50
2019,04,25,12,11,1.80
2019,04,25,12,12,7.30
2019,04,25,12,13,7.00
2019,04,25,12,14,4.20
2019,04,25,12,15,5.00
2019,04,25,12,16,9.10
2019,04,25,12,17,2.90
2019,04,25,12,18,6.10
2019,04,25,12,19,7.20
2019,04,25,12,20,6.10
2019,04,25,12,21,4.60
2019,04,25,12,22,9.30
2019,04,25,12,23,7.80
2019,04,25,12,24,9.60
2019,04,25,12,25,6.30
2019,04,25,12,26,5.70
2019,04,25,12,27,6.00
2019,04,25,12,28,7.40
2019,04,25,12,29,9.10
2019,04,25,12,30,7.20
2019,04,25,12,31,8.60
2019,04,25,12,32,11.40
2019,04,25,12,33,10.50
2019,04,25,12,34,8.60
2019,04,25,12,35,9.10
2019,04,25,12,36,7.70
2019,04,25,12,37,3.80
2019,04,25,12,38,5.40
2019,04,25,12,39,8.10
2019,04,25,12,40,7.80
2019,04,25,12,41,11.20
2019,04,25,12,42,10.30
2019,04,25,12,43,7.30
2019,04,25,12,44,3.80
2019,04,25,12,45,5.50
2019,04,25,12,46,10.40
2019,04,25,12,47,4.90
2019,04,25,12,48,3.50
2019,04,25,12,49,12.50
2019,04,25,12,50,12.00
2019,04,25,12,51,7.10
2019,04,25,12,52,8.80
2019,04,25,12,53,9.70
2019,04,25,12,54,6.60
2019,04,25,12,55,7.60
2019,04,25,12,56,6.50
2019,04,25,12,57,4.60
2019,04,25,12,58,5.90
2019,04,25,12,59,5.70
2019,04,25,13,00,5.50
2019,04,25,13,01,4.90
2019,04,25,13,02,8.50
2019,04,25,13,03,5.60
2019,04,25,13,04,3.90
2019,04,25,13,05,7.30
2019,04,25,13,06,4.90
2019,04,25,13,07,3.90
2019,04,25,13,08,3.80
2019,04,25,13,09,4.60
2019,04,25,13,10,7.10
2019,04,25,13,11,10.00
2019,04,25,13,12,12.10
2019,04,25,13,13,11.40
2019,04,25,13,14,8.10
2019,04,25,13,15,6.10
2019,04,25,13,16,6.30
2019,04,25,13,17,9.80
2019,04,25,13,18,7.90
2019,04,25,13,19,7.20
2019,04,25,13,20,9.50
2019,04,25,13,21,8.70
2019,04,25,13,22,12.20
2019,04,25,13,23,6.60
2019,04,25,13,24,8.40
2019,04,25,13,25,10.20
2019,04,25,13,26,4.10
2019,04,25,13,27,8.20
2019,04,25,13,28,3.70
2019,04,25,13,29,0.00
2019,04,25,13,30,0.00
2019,04,25,13,31,4.40
2019,04,25,13,32,5.50
2019,04,25,13,33,4.90
2019,04,25,13,34,8.20
2019,04,25,13,35,8.10
2019,04,25,13,36,5.70
2019,04,25,13,37,6.10
2019,04,25,13,38,5.50
2019,04,25,13,39,9.20
2019,04,25,13,40,10.60
2019,04,25,13,41,7.30
2019,04,25,13,42,11.70
2019,04,25,13,43,8.30
2019,04,25,13,44,6.40
2019,04,25,13,45,6.80
2019,04,25,13,46,5.80
2019,04,25,13,47,11.40
2019,04,25,13,48,11.60
2019,04,25,13,49,12.90
2019,04,25,13,50,7.50
2019,04,25,13,51,8.60
2019,04,25,13,52,9.40
2019,04,25,13,53,8.90
2019,04,25,13,54,10.40
2019,04,25,13,55,10.80
2019,04,25,13,56,11.60
2019,04,25,13,57,6.40
2019,04,25,13,58,10.00
2019,04,25,13,59,5.30
2019,04,25,14,00,7.70
2019,04,25,14,01,5.30
2019,04,25,14,02,5.80
2019,04,25,14,03,5.50
2019,04,25,14,04,5.60
2019,04,25,14,05,8.10
2019,04,25,14,06,8.80
2019,04,25,14,07,7.50
2019,04,25,14,08,6.30
2019,04,25,14,09,8.10
2019,04,25,14,10,8.30
2019,04,25,14,11,9.10
2019,04,25,14,12,6.90
2019,04,25,14,13,4.70
2019,04,25,14,14,2.10
2019,04,25,14,15,6.10
2019,04,25,14,16,7.30
2019,04,25,14,17,7.70
2019,04,25,14,18,7.10
2019,04,25,14,19,3.90
2019,04,25,14,20,8.70
2019,04,25,14,21,5.40
2019,04,25,14,22,3.50
2019,04,25,14,23,7.70
2019,04,25,14,24,5.70
2019,04,25,14,25,6.10
2019,04,25,14,26,6.50
2019,04,25,14,27,10.40
2019,04,25,14,28,10.90
2019,04,25,14,29,10.30
2019,04,25,14,30,8.20
2019,04,25,14,31,9.20
2019,04,25,14,32,8.50
2019,04,25,14,33,9.10
2019,04,25,14,34,6.40
2019,04,25,14,35,6.70
2019,04,25,14,36,7.60
2019,04,25,14,37,8.60
2019,04,25,14,38,6.30
2019,04,25,14,39,13.60
2019,04,25,14,40,11.30
2019,04,25,14,41,6.80
2019,04,25,14,42,6.60
2019,04,25,14,43,9.90
2019,04,25,14,44,5.00
2019,04,25,14,45,11.10
2019,04,25,14,46,9.90
2019,04,25,14,47,12.90
2019,04,25,14,48,8.90
2019,04,25,14,49,10.00
2019,04,25,14,50,8.20
2019,04,25,14,51,10.60
2019,04,25,14,52,10.30
2019,04,25,14,53,9.70
2019,04,25,14,54,9.90
2019,04,25,14,55,7.20
2019,04,25,14,56,5.40
2019,04,25,14,57,11.40
2019,04,25,14,58,11.40
2019,04,25,14,59,6.70
2019,04,25,15,00,6.90
2019,04,25,15,01,6.50
2019,04,25,15,02,9.30
2019,04,25,15,03,5.70
2019,04,25,15,04,4.50
2019,04,25,15,05,0.00
2019,04,25,15,06,0.00
2019,04,25,15,07,6.20
2019,04,25,15,08,10.00
2019,04,25,15,09,9.50
2019,04,25,15,10,6.30
2019,04,25,15,11,7.70
2019,04,25,15,12,8.90
2019,04,25,15,13,8.40
2019,04,25,15,14,10.30
2019,04,25,15,15,5.00
2019,04,25,15,16,10.30
2019,04,25,15,17,9.00
2019,04,25,15,18,7.40
2019,04,25,15,19,10.30
2019,04,25,15,20,9.20
2019,04,25,15,21,8.10
2019,04,25,15,22,8.90
2019,04,25,15,23,8.10
2019,04,25,15,24,8.20
2019,04,25,15,25,7.70
2019,04,25,15,26,11.00
2019,04,25,15,27,6.70
2019,04,25,15,28,4.90
2019,04,25,15,29,7.60
2019,04,25,15,30,8.80
2019,04,25,15,31,8.60
2019,04,25,15,32,8.30
2019,04,25,15,33,7.80
2019,04,25,15,34,8.00
2019,04,25,15,35,7.60
2019,04,25,15,36,8.60
2019,04,25,15,37,6.30
2019,04,25,15,38,7.00
2019,04,25,15,39,4.50
2019,04,25,15,40,6.90
2019,04,25,15,41,6.80
2019,04,25,15,42,8.20
2019,04,25,15,43,4.60
2019,04,25,15,44,6.40
2019,04,25,15,45,4.60
2019,04,25,15,46,4.50
2019,04,25,15,47,5.30
2019,04,25,15,48,8.00
2019,04,25,15,49,3.80
2019,04,25,15,50,5.10
2019,04,25,15,51,7.20
2019,04,25,15,52,5.70
2019,04,25,15,53,6.60
2019,04,25,15,54,2.40
2019,04,25,15,55,5.80
2019,04,25,15,56,6.30
2019,04,25,15,57,7.70
2019,04,25,15,58,6.60
2019,04,25,15,59,4.40
2019,04,25,16,00,3.80
2019,04,25,16,01,7.30
2019,04,25,16,02,5.50
2019,04,25,16,03,7.50
2019,04,25,16,04,5.70
2019,04,25,16,05,7.00
2019,04,25,16,06,4.50
2019,04,25,16,07,3.90
2019,04,25,16,08,2.30
2019,04,25,16,09,3.80
2019,04,25,16,10,5.30
2019,04,25,16,11,5.10
2019,04,25,16,12,7.50
2019,04,25,16,13,4.20
2019,04,25,16,14,7.20
2019,04,25,16,15,2.20
2019,04,25,16,16,2.10
2019,04,25,16,17,4.80
2019,04,25,16,18,4.20
2019,04,25,16,19,3.00
2019,04,25,16,20,5.40
2019,04,25,16,21,5.10
2019,04,25,16,22,3.80
2019,04,25,16,23,2.60
2019,04,25,16,24,3.50
2019,04,25,16,25,2.20
2019,04,25,16,26,4.80
2019,04,25,16,27,6.30
2019,04,25,16,28,6.20
2019,04,25,16,29,3.30
2019,04,25,16,30,3.50
2019,04,25,16,31,6.00
2019,04,25,16,32,4.80
2019,04,25,16,33,4.20
2019,04,25,16,34,5.00
2019,04,25,16,35,3.90
2019,04,25,16,36,3.00
2019,04,25,16,37,4.70
2019,04,25,16,38,2.40
2019,04,25,16,39,3.40
2019,04,25,16,40,2.70
2019,04,25,16,41,4.80
2019,04,25,16,42,3.30
2019,04,25,16,43,5.30
2019,04,25,16,44,5.10
2019,04,25,16,45,8.30
2019,04,25,16,46,3.20
2019,04,25,16,47,3.70
2019,04,25,16,48,1.50
2019,04,25,16,49,6.80
2019,04,25,16,50,6.40
2019,04,25,16,51,3.20
2019,04,25,16,52,3.00
2019,04,25,16,53,4.20
2019,04,25,16,54,1.50
2019,04,25,16,55,6.60
2019,04,25,16,56,3.20
2019,04,25,16,57,3.70
2019,04,25,16,58,4.50
2019,04,25,16,59,2.40
2019,04,25,17,00,0.10
2019,04,25,17,01,8.90
2019,04,25,17,02,6.60
2019,04,25,17,03,2.10
2019,04,25,17,04,3.00
2019,04,25,17,05,4.80
2019,04,25,17,06,3.90
2019,04,25,17,07,8.40
2019,04,25,17,08,3.80
2019,04,25,17,09,4.60
2019,04,25,17,10,2.80
2019,04,25,17,11,4.50
2019,04,25,17,12,4.80
2019,04,25,17,13,3.90
2019,04,25,17,14,3.60
2019,04,25,17,15,1.90
2019,04,25,17,16,2.80
2019,04,25,17,17,1.60
2019,04,25,17,18,2.20
2019,04,25,17,19,3.60
2019,04,25,17,20,3.80
2019,04,25,17,21,0.60
2019,04,25,17,22,2.80
2019,04,25,17,23,3.50
2019,04,25,17,24,3.30
2019,04,25,17,25,3.60
2019,04,25,17,26,3.20
2019,04,25,17,27,2.40
2019,04,25,17,28,3.90
2019,04,25,17,29,3.70
2019,04,25,17,30,5.20
2019,04,25,17,31,2.60
2019,04,25,17,32,3.00
2019,04,25,17,33,2.90
2019,04,25,17,34,5.70
2019,04,25,17,35,3.30
2019,04,25,17,36,5.20
2019,04,25,17,37,3.70
2019,04,25,17,38,2.60
2019,04,25,17,39,2.70
2019,04,25,17,40,4.20
2019,04,25,17,41,4.10
2019,04,25,17,42,1.60
2019,04,25,17,43,2.30
2019,04,25,17,44,3.40
2019,04,25,17,45,5.80
2019,04,25,17,46,4.50
2019,04,25,17,47,2.70
2019,04,25,17,48,3.20
2019,04,25,17,49,3.20
2019,04,25,17,50,0.00
2019,04,25,17,51,0.40
2019,04,25,17,52,5.10
2019,04,25,17,53,3.30
2019,04,25,17,54,3.30
2019,04,25,17,55,5.40
2019,04,25,17,56,3.20
2019,04,25,17,57,1.50
2019,04,25,17,58,2.30
2019,04,25,17,59,3.40
2019,04,25,18,00,5.90
2019,04,25,18,01,6.70
2019,04,25,18,02,5.60
2019,04,25,18,03,4.00
2019,04,25,18,04,4.30